RH
73 87 89 77 75 66 62 62 62 69 71 73 76 85 98 104 100 91 88 94 94 89 87 93 96 88 78 72 68 69 77 87 95 96 95 98 88 63 54 54 46 44 45 45 50 51 50 49 57 72 71 57 48 47 49 55 60 61 63 66 67 69 74 76 77 79 81 82 87 94 96 93 88 82 79 78 77 73 70 63 52 42 40 43 44
73 83 90 79 73 68 68 67 67 67 69 79 85 93 104 107 104 99 98 100 96 86 83 92 99 92 84 78 73 77 87 96 103 102 101 103 86 58 52 54 48 47 49 50 52 54 53 53 62 75 78 69 57 50 51 58 66 69 70 75 78 77 77 80 85 89 92 94 96 99 97 89 83 81 80 80 80 77 75 71 63 50 42 44 47
86 87 91 85 77 77 77 68 62 61 63 74 88 101 105 104 104 104 107 105 98 92 89 97 103 98 89 80 80 89 96 101 106 105 105 103 78 51 47 51 51 52 54 55 56 57 57 56 66 81 85 79 68 58 55 60 71 80 81 83 84 85 86 87 90 94 96 97 96 94 91 86 84 83 83 82 80 77 76 75 72 63 51 47 46
98 98 92 88 85 82 75 65 61 60 60 60 75 99 104 100 101 104 106 103 102 103 100 101 102 99 86 77 87 102 103 102 104 102 103 95 66 44 44 49 53 56 58 60 61 61 59 59 69 86 94 88 77 67 61 62 71 85 91 92 94 98 100 93 87 87 87 87 86 83 79 77 77 78 80 80 77 73 71 70 71 69 62 54 51
98 101 92 88 87 80 69 66 65 58 51 47 54 80 99 100 100 103 102 99 102 104 102 98 96 94 86 82 97 107 106 103 102 102 99 81 53 40 44 49 55 58 58 61 66 65 63 64 71 87 100 96 83 71 67 68 71 82 96 99 100 104 101 91 85 84 82 80 77 68 61 58 61 67 71 73 71 69 66 65 65 65 64 60 57
101 95 88 90 89 79 74 73 66 53 48 46 41 55 83 98 101 102 100 99 100 101 99 92 89 93 92 95 103 106 104 103 102 101 89 65 45 41 45 50 55 57 59 63 67 68 66 69 79 93 104 102 90 73 65 73 76 80 93 100 99 97 92 86 86 86 81 76 66 52 43 41 48 55 59 60 60 62 64 67 68 67 67 66 66
96 88 88 94 90 82 80 73 61 56 55 49 39 44 67 88 99 99 99 100 99 100 98 90 89 97 102 103 105 105 107 107 102 92 72 52 43 44 48 52 55 58 62 68 70 69 68 75 90 104 109 105 97 77 61 71 82 81 87 98 101 94 86 83 84 84 77 68 56 45 37 36 39 43 46 46 46 49 55 62 68 74 79 81 83
88 88 95 96 93 86 75 66 68 75 75 66 53 53 65 75 83 92 99 101 99 98 93 87 92 100 106 109 107 107 108 106 94 75 57 46 46 50 54 58 59 62 67 72 74 70 69 84 102 112 111 105 103 84 57 62 83 86 82 86 96 94 87 85 84 81 74 65 56 47 41 37 37 39 40 39 39 40 43 50 61 74 86 94 97
84 88 98 100 100 94 81 80 87 91 93 93 84 78 81 79 82 93 99 99 95 91 91 93 99 104 109 111 106 100 98 95 81 64 52 47 52 59 62 63 62 66 72 75 78 73 75 94 109 113 108 104 106 85 53 56 80 93 86 77 83 86 85 86 82 79 75 68 61 51 45 42 41 42 42 40 38 38 37 40 46 56 68 78 82
88 86 94 100 100 99 97 96 93 89 84 89 99 98 98 96 92 92 90 89 86 88 98 102 104 107 108 107 97 87 87 86 71 56 50 48 54 62 66 66 66 71 76 78 80 79 85 102 111 113 108 104 106 80 51 55 77 96 90 76 76 76 77 81 78 80 81 74 65 56 49 46 46 47 46 42 38 36 34 34 36 40 46 52 56
98 90 94 97 95 97 100 99 95 92 83 86 98 94 95 103 98 87 78 77 80 90 101 102 104 106 104 99 83 74 78 75 62 51 47 48 54 64 70 72 72 74 78 81 82 85 94 104 109 112 106 105 105 76 52 59 79 96 90 77 77 71 69 74 78 88 90 79 69 60 54 50 48 49 48 44 40 37 35 34 34 35 37 39 40
102 99 102 94 89 96 99 101 100 98 97 98 94 80 83 93 87 75 65 70 83 91 94 95 97 95 90 81 65 64 69 61 56 55 53 56 64 74 79 80 76 74 79 83 86 92 97 101 104 106 103 106 104 75 57 66 82 95 92 84 81 73 71 75 83 97 98 85 73 64 58 53 50 50 49 46 42 41 40 39 37 35 36 36 35
102 101 109 99 90 99 100 101 101 98 102 104 94 81 79 79 76 69 63 70 79 79 83 85 83 79 73 61 49 58 66 60 67 76 75 75 80 86 85 81 77 77 84 88 92 97 99 100 99 102 104 108 101 76 63 71 82 89 88 82 78 78 82 81 91 105 102 90 77 67 62 57 53 51 50 49 46 46 46 45 43 40 39 39 40
104 94 99 102 95 102 102 99 101 97 101 103 94 81 71 69 74 78 78 80 73 67 74 73 69 69 61 53 57 71 79 81 90 97 95 92 93 93 87 85 85 88 94 96 99 100 99 100 99 103 106 106 101 81 67 73 80 80 75 72 78 88 93 91 102 111 105 94 81 71 67 60 56 54 52 51 51 52 51 49 47 44 43 43 44
103 96 94 104 104 105 103 99 97 93 100 104 94 81 69 66 69 72 78 85 80 76 79 71 65 66 60 64 82 95 96 97 101 103 102 102 100 93 88 93 97 98 100 100 101 100 99 101 101 105 104 105 105 83 69 76 78 73 68 69 84 100 102 102 108 108 101 94 84 77 72 63 58 57 55 54 57 58 54 49 46 43 42 42 42
96 99 92 100 108 105 101 101 94 91 102 105 100 94 79 71 71 68 69 77 81 82 85 85 83 83 81 87 96 99 98 100 103 102 101 103 100 94 94 100 101 98 99 101 101 100 100 100 101 103 102 107 106 81 71 81 79 72 68 74 94 109 109 108 109 105 99 93 87 82 73 64 60 58 57 61 63 59 50 46 46 46 46 44 40
88 95 92 97 105 102 99 102 99 98 103 104 107 105 91 85 80 73 72 77 79 78 82 92 99 100 97 98 100 100 101 103 103 101 100 100 97 96 98 101 101 98 98 101 100 100 101 100 100 101 102 107 97 75 75 86 82 77 77 85 98 104 104 104 104 103 99 94 88 81 71 62 59 59 63 66 63 53 45 47 51 52 49 44 39
89 91 100 103 103 102 100 100 101 104 103 102 107 102 96 97 88 78 79 79 78 76 81 90 94 97 101 102 100 93 92 95 98 100 100 98 97 99 101 101 101 101 101 100 100 102 100 100 101 101 105 104 85 70 80 89 87 85 87 90 92 92 95 96 100 105 100 91 84 77 67 60 58 63 67 63 54 46 44 48 51 51 48 46 43
94 86 101 105 99 102 103 100 101 102 99 101 108 101 97 102 95 87 85 81 79 79 86 90 83 84 88 86 80 74 80 93 99 101 99 99 100 101 101 101 100 101 102 100 101 102 100 101 101 102 106 95 73 68 80 91 94 92 91 92 94 97 97 99 106 106 92 82 78 71 64 63 66 68 62 52 44 41 43 48 50 49 48 46 44
98 90 100 101 98 103 102 103 105 101 98 101 108 106 103 103 98 90 82 79 79 77 84 91 88 89 86 82 83 85 92 99 100 100 100 100 101 100 102 104 104 103 101 100 102 102 102 104 101 101 100 81 65 68 80 95 103 100 99 99 100 103 107 110 105 92 81 77 71 66 70 75 73 64 52 44 40 41 46 49 49 47 46 46 44
100 97 102 99 99 103 98 101 107 103 99 97 100 108 107 100 97 94 82 76 74 73 85 97 99 100 96 96 99 98 99 101 102 103 100 100 103 105 106 106 106 106 103 101 102 103 105 104 101 99 89 71 67 73 84 100 104 103 108 106 102 106 109 103 92 82 78 73 69 76 85 81 67 52 43 40 41 45 49 49 46 44 45 47 49
100 97 101 102 101 101 95 94 94 83 75 76 82 98 99 85 85 92 87 85 84 85 96 101 99 100 101 103 103 102 103 101 95 88 85 94 103 104 104 100 99 101 104 103 104 107 109 104 98 91 77 70 75 81 92 105 102 103 113 110 104 105 99 91 87 83 76 74 82 93 89 70 53 43 40 41 45 48 48 46 43 43 44 48 51
96 100 99 101 102 100 97 97 87 64 53 57 65 85 94 79 74 83 84 85 87 94 103 102 102 105 101 97 93 91 87 78 72 71 80 95 99 98 101 100 97 100 103 104 105 109 110 100 87 76 70 74 82 89 100 104 100 106 114 109 103 101 98 96 90 80 78 87 97 94 76 56 44 40 41 46 49 48 46 43 41 41 44 47 51
72 94 102 101 102 103 101 101 93 69 51 44 43 60 80 80 77 81 80 75 74 81 86 90 98 94 81 76 76 77 76 77 81 85 90 96 96 98 102 101 100 101 100 100 104 109 106 90 71 65 69 77 87 98 104 103 103 111 112 105 101 101 103 98 87 82 90 98 96 85 66 48 41 42 46 49 47 44 42 40 40 41 44 47 51
57 78 94 98 102 103 101 101 96 79 59 42 31 34 46 55 61 66 69 65 60 57 57 64 70 65 68 83 92 93 92 94 98 97 94 95 98 100 101 101 101 100 97 96 101 105 94 73 60 63 67 74 92 103 101 104 111 112 106 100 100 104 103 95 90 95 98 97 93 80 60 45 43 46 47 46 43 40 40 39 40 41 44 48 52
80 82 91 100 104 103 102 99 93 82 66 48 35 30 30 33 37 40 46 48 47 47 46 49 52 56 70 85 92 96 96 97 99 98 98 99 100 101 101 102 103 100 96 93 96 94 79 63 57 61 62 70 95 108 104 109 115 108 98 98 101 103 102 98 98 101 98 97 93 75 54 44 45 46 45 42 39 38 38 38 39 41 44 48 51
98 95 99 103 104 106 101 90 85 81 67 49 38 35 34 34 35 34 32 33 36 39 40 44 51 63 75 78 86 97 98 99 99 97 99 100 100 102 102 103 105 100 92 88 88 82 70 59 54 57 62 72 95 109 109 110 108 99 93 97 101 101 100 101 102 101 98 97 91 71 52 44 44 45 43 41 38 38 37 37 39 41 44 48 51
99 98 101 100 102 108 95 78 81 77 62 49 40 38 37 34 37 40 36 31 31 33 36 39 43 62 84 88 92 101 99 99 100 99 101 101 101 102 101 103 102 94 89 84 77 69 65 58 52 58 70 82 98 107 107 105 99 91 92 98 100 99 100 102 102 101 98 97 90 71 51 42 43 44 42 40 38 37 37 38 40 42 45 48 51
100 100 100 99 102 104 89 76 80 74 62 53 44 44 43 33 29 35 37 36 34 32 34 37 42 68 98 99 93 99 101 100 101 99 98 99 100 100 101 100 93 88 84 73 64 66 68 57 49 64 82 92 100 102 97 93 89 88 94 100 100 100 101 102 102 101 99 96 86 68 50 41 42 43 41 41 39 38 39 41 43 45 47 49 52
101 102 100 100 102 100 87 80 82 74 62 51 47 53 52 39 28 27 32 36 36 38 43 49 58 80 103 104 97 100 101 100 100 96 95 97 99 101 100 93 86 82 70 56 59 70 68 51 48 70 92 97 97 92 86 83 85 93 100 100 100 100 101 102 102 102 101 94 79 61 47 41 41 43 43 44 42 41 42 44 47 49 50 51 53
102 103 94 86 92 98 88 81 87 84 65 49 50 60 61 48 33 27 28 30 34 46 58 64 69 84 100 103 100 100 100 101 101 98 97 100 100 100 96 87 80 70 54 48 60 68 59 45 54 84 99 97 92 87 86 89 94 100 100 99 100 101 101 102 103 104 102 88 68 52 43 41 42 44 45 47 46 44 45 47 49 51 52 53 54
104 107 86 63 65 77 74 72 82 86 73 56 48 51 59 56 41 31 30 29 35 48 61 72 80 91 101 102 100 101 100 100 101 102 102 99 98 97 93 83 69 53 46 51 60 63 54 45 62 90 95 87 87 90 93 98 99 99 99 100 101 100 101 102 103 107 99 75 53 43 41 42 44 46 46 48 47 45 46 48 50 53 55 55 55
102 106 95 77 71 72 68 65 74 80 74 62 45 37 49 60 50 38 33 31 35 47 67 89 98 99 100 99 100 100 100 101 100 97 96 97 98 96 85 68 52 43 44 52 58 59 54 54 72 91 90 85 90 96 98 99 99 100 101 100 99 100 102 100 103 108 91 59 42 40 41 42 44 46 46 47 47 45 46 48 51 55 57 56 56
98 99 101 98 94 90 79 67 70 73 65 58 50 38 42 56 55 47 40 36 35 42 61 84 94 97 100 100 101 102 101 101 99 94 93 94 90 78 60 45 39 40 43 52 61 60 60 73 91 98 96 96 98 99 100 100 100 101 100 100 101 101 100 100 106 105 80 49 38 39 40 41 44 45 44 45 45 44 46 48 52 58 60 58 57
99 99 101 101 100 100 92 82 77 70 59 52 47 42 43 52 58 57 49 43 41 39 44 57 68 76 81 81 86 98 104 102 101 94 81 69 57 46 39 38 38 39 43 52 58 56 63 85 100 101 99 100 99 99 100 100 100 101 101 101 99 98 102 105 101 86 61 42 37 38 39 41 43 43 42 42 43 44 46 49 55 62 63 61 60
100 100 98 95 97 99 96 90 78 68 59 45 38 42 47 51 60 64 59 52 49 47 43 43 46 50 57 65 73 86 95 96 91 74 51 38 35 34 34 37 39 40 44 50 52 55 68 88 100 101 101 101 100 101 101 100 101 102 100 95 95 99 100 89 71 52 41 37 36 37 38 40 42 41 40 41 42 44 47 51 59 65 67 66 65
101 100 95 86 80 78 77 72 61 54 49 41 42 48 46 51 65 67 63 59 53 53 55 56 61 67 72 76 72 65 61 59 53 40 28 26 28 29 32 34 39 44 46 47 51 58 71 84 91 96 99 100 99 101 102 100 99 97 94 93 94 88 70 50 38 33 34 35 35 36 38 40 42 40 39 40 42 45 50 56 64 69 69 69 69
102 103 100 91 79 69 64 61 57 53 48 48 57 56 43 55 74 71 63 60 51 49 54 61 69 74 71 61 48 38 31 28 27 23 21 23 24 28 36 39 43 48 52 57 62 64 67 71 73 76 84 89 91 96 98 95 93 93 93 90 78 55 37 31 31 31 32 33 34 37 40 41 40 39 40 41 45 51 57 63 72 75 72 70 72
102 103 101 98 93 87 78 70 70 75 72 63 60 55 46 55 72 72 64 57 49 45 45 50 55 54 49 41 31 29 28 25 23 21 19 21 23 28 34 37 37 38 43 54 65 69 70 72 73 73 76 82 88 94 96 94 94 94 90 76 53 34 30 33 32 30 31 33 34 37 38 38 38 39 41 44 51 59 64 71 80 81 77 78 80
101 101 101 100 98 97 92 84 85 93 93 74 55 48 45 47 56 64 60 51 46 43 40 41 44 41 36 32 28 30 33 30 27 25 23 23 26 29 29 29 29 30 34 40 45 53 61 68 78 86 88 93 97 99 101 101 99 94 82 63 42 32 33 32 31 31 33 34 35 36 36 37 38 40 43 49 58 65 70 76 81 80 82 86 86
102 99 100 101 98 98 98 95 94 97 101 89 65 47 39 37 44 53 56 49 40 37 38 37 36 36 30 29 35 40 41 39 35 31 31 32 32 34 37 37 34 34 40 43 39 38 42 48 58 69 78 86 92 96 98 98 95 85 70 52 39 34 33 31 31 31 33 36 36 36 37 37 39 42 46 54 62 67 71 76 80 83 87 89 87
102 100 100 101 100 100 98 93 86 88 100 102 85 67 51 38 39 46 52 55 47 38 38 37 33 34 33 32 39 48 50 49 45 41 38 37 36 37 42 45 40 36 38 43 44 39 34 34 36 39 44 49 54 59 61 61 61 56 47 40 36 33 32 32 32 32 34 36 36 37 37 38 41 45 51 58 64 68 71 76 82 86 87 87 88
101 99 100 101 100 98 96 94 88 85 95 96 84 78 66 45 40 45 44 49 56 52 46 45 40 37 39 41 47 58 65 64 57 51 45 42 42 41 39 38 36 34 32 35 43 43 36 33 34 34 34 34 35 35 35 35 36 34 34 34 32 32 32 33 34 34 35 36 37 38 40 42 46 51 56 62 67 69 73 80 84 86 88 92 95
100 99 99 99 100 99 97 101 101 95 96 93 80 78 75 55 45 51 47 37 40 46 47 49 52 48 44 48 55 65 76 79 73 64 55 50 49 48 46 43 39 37 34 33 37 38 35 34 36 36 37 38 37 36 34 34 33 33 33 33 33 34 34 34 35 37 38 40 42 44 47 51 54 56 61 66 68 71 76 82 85 88 94 98 99
99 100 100 99 100 102 99 100 102 99 99 99 89 82 84 76 57 52 60 54 38 35 38 40 49 58 58 56 61 69 80 89 89 81 69 61 58 57 58 58 53 48 45 42 42 41 39 39 38 38 39 40 40 40 39 38 37 36 36 36 36 37 37 38 40 41 43 45 47 51 54 57 59 61 65 68 69 72 78 82 87 91 94 93 90
101 100 101 100 100 101 101 100 101 100 99 101 99 88 86 95 83 60 65 78 62 42 39 35 35 45 53 57 63 70 77 84 91 94 90 82 78 77 74 72 69 65 60 56 52 50 48 46 44 44 45 44 45 45 44 43 42 41 40 40 40 41 42 44 45 46 48 50 52 55 58 61 62 63 66 69 70 74 79 83 86 87 85 83 81
104 103 101 101 100 99 100 100 99 100 100 99 101 94 84 94 100 79 69 85 84 62 48 41 34 33 35 39 49 57 61 66 76 87 88 82 79 80 76 66 58 59 66 69 65 59 54 53 52 51 51 51 51 50 49 48 47 46 45 44 44 44 45 47 49 52 53 54 56 58 60 63 65 65 68 71 72 75 79 81 82 81 80 81 83
102 102 100 100 101 100 100 101 99 100 102 99 99 100 94 91 98 93 78 79 88 85 70 54 44 41 38 35 38 43 47 51 57 62 66 67 67 69 69 61 49 48 58 64 64 63 63 62 59 57 56 55 56 56 56 54 51 50 48 46 46 47 48 50 52 55 56 57 59 60 61 63 65 66 69 71 72 75 77 80 82 84 87 90 92
101 101 100 100 101 100 99 101 101 99 100 102 100 102 103 98 95 95 87 75 75 84 86 75 60 54 51 48 45 46 52 57 59 60 62 63 62 62 65 65 59 55 54 52 51 59 69 71 67 63 61 61 62 63 61 58 56 54 51 49 50 50 52 53 54 56 58 59 61 62 63 64 66 68 71 72 74 77 81 86 92 96 98 100 98
101 100 100 101 101 101 99 99 102 101 99 102 103 103 106 104 93 86 87 85 78 73 75 76 69 60 56 55 54 55 59 63 64 64 63 62 67 75 80 79 74 69 65 59 53 54 64 72 73 70 68 68 69 69 65 61 59 57 53 53 54 55 57 58 58 60 61 62 64 67 68 69 71 71 72 74 77 81 87 93 98 101 100 97 92
102 101 101 101 100 100 100 99 100 103 102 101 102 103 103 99 92 88 89 95 94 83 72 70 68 64 63 63 64 67 69 68 66 65 62 64 75 86 90 89 87 84 80 76 69 63 64 68 71 72 72 73 75 76 71 64 60 59 58 58 58 60 62 64 64 65 65 67 71 73 73 74 74 73 72 73 76 83 89 93 95 94 90 85 82
Wind_Speed
40 39 38 37 37 37 37 38 37 36 37 36 34 31 30 30 30 30 29 27 26 25 25 25 26 27 26 27 29 31 30 27 27 26 26 26 24 23 22 20 20 20 20 20 21 22 23 23 24 25 24 23 21 18 15 13 12 11 11 12 12 13 14 15 16 17 17 17 19 20 21 21 20 20 20 21 21 21 21 21 20 20 19 18 17
39 38 36 35 36 37 38 38 38 38 38 38 35 32 30 30 30 30 29 28 27 27 26 25 25 26 26 28 30 31 30 28 28 27 26 26 24 23 22 20 20 20 20 21 21 22 23 23 23 24 24 23 21 20 16 14 12 12 12 12 13 14 14 15 16 17 18 19 20 22 22 22 21 21 21 21 21 21 21 22 22 22 22 21 21
39 38 37 36 37 37 37 38 38 38 39 39 37 33 30 31 32 31 31 30 29 28 26 25 25 26 27 29 31 31 30 29 28 27 26 25 24 23 22 20 20 20 21 22 22 23 23 23 23 24 25 24 22 21 18 15 13 12 12 12 14 14 15 16 16 17 18 19 20 20 21 21 21 21 21 21 20 20 20 21 22 23 23 24 24
39 38 38 37 37 37 37 38 37 37 38 39 39 35 31 31 32 31 31 30 28 27 26 25 24 26 28 30 31 31 29 28 28 27 26 24 23 23 22 20 19 20 21 22 23 23 24 24 23 24 26 26 25 23 20 17 15 13 12 13 14 15 16 17 17 17 17 17 18 18 18 19 19 20 19 19 18 18 18 19 21 23 24 25 25
37 37 38 38 37 37 36 36 36 39 39 39 38 36 32 30 30 29 28 28 26 26 25 24 24 26 28 29 30 30 28 28 28 27 25 22 22 23 22 20 19 20 22 22 23 24 25 24 24 25 27 28 28 26 22 19 17 15 14 14 14 15 16 17 17 16 17 17 17 16 17 18 18 18 17 16 16 16 16 17 19 20 22 24 25
36 37 37 37 37 36 34 36 40 42 40 37 35 35 32 27 26 25 25 24 24 25 24 23 25 27 28 29 29 28 28 28 27 26 23 22 22 23 22 20 20 21 22 23 24 25 25 25 25 25 27 30 30 28 25 21 19 17 16 15 16 16 16 16 16 16 17 17 16 16 17 17 17 16 15 14 14 15 16 17 18 19 21 22 23
38 37 37 36 36 35 36 40 42 42 39 36 34 31 28 23 20 21 22 23 23 24 24 25 26 27 27 28 27 26 27 27 25 23 22 22 23 23 22 22 21 22 23 24 24 25 26 25 25 26 28 31 33 31 28 24 20 18 17 16 16 17 17 17 16 16 16 16 15 15 16 16 16 15 14 14 15 16 17 18 19 20 21 22 23
39 36 35 35 35 36 39 40 40 37 35 34 33 30 26 22 19 19 20 22 24 25 26 27 26 26 27 27 25 24 25 25 23 22 22 22 22 22 22 23 23 23 24 24 25 26 26 25 25 27 29 32 35 33 30 26 22 19 18 17 17 18 18 17 16 16 16 16 15 15 16 17 16 15 15 15 16 17 18 20 21 22 23 24 25
38 35 33 32 32 35 37 36 34 31 30 31 31 29 25 21 18 19 21 24 26 27 27 27 26 26 25 24 22 23 24 24 24 23 23 22 21 22 23 24 24 24 24 25 26 27 26 25 26 28 31 34 36 34 30 27 23 20 19 18 18 18 18 17 17 17 16 16 16 16 17 17 17 16 16 17 18 19 20 21 22 23 24 24 25
36 34 32 28 27 30 32 34 33 30 30 30 28 26 24 22 22 23 26 28 28 28 27 26 26 25 23 21 22 24 24 24 26 25 24 22 22 24 25 25 25 24 25 26 26 27 26 26 27 30 32 36 38 35 31 27 23 20 19 18 17 17 18 18 18 17 16 16 16 17 18 18 18 18 18 18 19 20 21 22 23 24 24 24 24
34 34 33 30 29 31 33 35 36 34 32 29 26 26 28 29 29 31 33 32 29 27 27 25 24 24 23 23 25 26 25 24 26 27 25 24 25 27 27 26 26 25 25 26 27 27 27 27 29 32 34 38 39 36 31 26 22 20 18 17 17 18 18 18 18 17 16 17 17 18 19 19 19 19 19 20 20 21 22 23 24 24 24 24 24
33 31 32 35 37 36 34 33 33 32 31 29 27 28 30 31 33 35 35 32 29 29 29 26 25 25 25 26 26 25 24 25 26 27 26 26 28 29 29 28 27 25 26 27 28 28 28 29 31 34 37 39 39 36 31 26 21 20 18 18 18 19 19 19 18 16 16 17 18 19 20 20 21 21 20 20 21 22 24 24 25 25 24 24 24
32 32 34 39 39 34 30 29 29 28 29 31 30 27 27 31 34 34 33 31 31 32 31 29 28 27 26 26 25 23 24 25 26 28 29 29 30 30 30 29 27 26 27 28 29 30 30 31 34 36 39 41 39 35 31 26 22 20 20 19 19 20 20 19 17 16 17 18 19 20 21 22 22 22 21 21 23 25 26 26 26 25 25 25 25
34 37 37 38 37 31 28 29 31 30 30 32 31 27 27 31 34 34 34 34 35 34 32 31 29 28 27 25 22 22 25 26 27 29 30 31 31 31 31 29 28 28 29 30 31 32 32 34 36 39 41 41 38 35 31 26 23 22 21 20 20 20 20 19 17 17 19 19 21 22 23 24 24 23 22 23 25 27 28 27 25 25 25 25 25
36 36 33 31 32 30 26 29 32 31 32 34 33 28 26 29 31 32 33 34 35 33 32 32 30 29 26 22 21 23 25 27 30 31 31 32 32 31 31 31 29 29 30 32 33 34 35 36 38 40 41 40 38 35 31 26 23 22 20 19 19 20 20 19 17 18 20 21 22 23 24 25 24 23 23 25 27 28 28 26 25 25 25 26 26
38 36 33 27 28 29 22 28 33 32 32 33 31 27 28 29 31 32 32 32 33 33 32 31 29 28 24 21 23 25 27 30 32 31 31 33 32 31 31 31 31 30 31 33 34 36 37 38 39 40 41 40 38 35 29 25 23 21 18 18 18 19 19 18 18 20 21 22 24 25 26 26 25 24 25 27 28 28 27 26 26 26 27 28 30
41 39 36 26 25 27 24 32 39 38 35 33 30 30 32 32 32 33 33 33 33 33 32 30 28 28 26 26 27 29 30 32 32 31 32 32 31 31 31 32 33 32 32 34 37 38 39 39 40 42 42 40 38 33 28 24 22 20 18 17 18 19 19 19 20 21 23 24 25 25 26 25 24 25 26 27 27 26 26 26 27 28 30 32 33
43 41 36 28 26 28 28 33 40 41 39 37 35 36 36 35 36 36 36 35 34 34 33 30 30 30 29 29 29 29 29 30 32 34 33 31 30 30 31 32 34 34 34 37 39 40 41 41 42 42 41 39 36 31 27 24 21 19 17 18 18 19 19 20 21 23 24 25 25 26 25 24 24 26 27 26 26 26 26 26 27 28 30 32 34
45 42 36 30 29 30 33 35 38 39 40 41 42 42 42 41 40 37 34 33 33 34 35 34 33 32 31 31 29 28 28 31 34 34 32 31 31 32 33 34 34 35 37 38 40 41 42 42 42 41 40 38 34 30 25 22 20 18 17 18 18 19 20 21 22 24 25 25 25 25 24 24 25 26 26 25 26 26 25 25 25 27 29 32 33
43 40 34 32 31 33 36 38 39 40 41 43 46 48 48 46 45 41 37 35 36 37 38 36 35 32 31 30 29 30 31 33 34 33 31 32 32 33 34 34 33 34 36 37 38 40 41 41 41 40 39 36 33 28 24 21 19 18 17 18 18 19 20 22 23 23 24 25 24 24 24 25 26 26 25 25 25 24 23 22 24 26 29 31 34
42 39 37 37 37 37 37 36 39 41 41 43 47 49 48 46 46 47 45 43 43 43 40 37 35 33 32 31 32 32 32 33 33 32 32 33 33 33 33 32 30 31 33 36 38 39 40 40 41 39 37 35 31 27 23 20 19 18 18 18 19 20 21 22 22 23 24 24 23 23 24 25 25 25 25 24 23 21 21 22 24 27 29 31 34
45 42 41 42 41 38 32 31 34 37 39 41 43 47 47 44 45 48 47 45 45 44 40 38 38 38 37 36 35 34 32 33 33 33 33 33 33 32 32 31 30 31 34 36 38 40 41 40 40 38 36 33 29 25 23 21 19 19 18 19 20 21 21 21 22 23 23 23 22 23 24 25 25 25 23 22 20 20 21 23 25 27 28 30 33
49 46 44 44 42 36 30 28 31 32 35 38 42 46 47 46 45 47 48 48 47 46 43 42 43 42 40 38 37 34 32 32 32 32 32 32 31 31 31 32 32 32 34 36 39 41 41 40 38 37 34 30 27 24 22 21 19 19 19 20 20 20 21 21 22 23 22 22 22 23 24 25 24 23 21 19 19 21 23 25 26 27 28 29 31
50 49 47 45 41 34 31 30 30 29 30 33 38 43 46 46 47 48 50 50 49 48 46 46 45 42 40 37 35 33 31 31 31 32 32 31 30 31 33 34 33 32 33 36 39 41 40 38 37 34 31 27 25 23 22 20 20 20 20 20 20 20 21 22 23 23 22 22 23 24 25 24 23 21 18 18 20 23 25 26 27 27 27 29 31
45 48 47 45 37 31 30 30 29 29 28 28 30 35 40 44 47 49 50 50 49 48 46 45 43 40 38 35 34 34 33 33 34 33 32 31 32 34 35 34 32 31 34 37 39 39 38 37 34 31 29 26 24 22 21 21 21 20 21 21 21 21 22 23 23 22 22 22 24 25 25 23 21 19 18 20 23 25 26 27 27 27 27 29 31
32 37 38 37 33 31 31 29 28 29 28 28 27 28 32 37 42 46 47 48 47 46 44 42 40 38 37 35 34 35 35 35 34 34 34 34 35 35 34 33 32 32 36 38 39 38 37 35 32 30 28 25 23 22 22 22 22 22 22 22 21 22 23 23 23 23 23 24 25 25 24 22 20 20 21 24 25 25 26 26 27 27 28 29 31
22 27 29 30 29 29 29 27 27 27 28 27 26 26 27 30 35 40 42 44 43 43 41 39 37 36 35 33 32 32 34 35 35 35 36 36 35 33 33 33 33 35 37 38 37 36 36 34 31 28 27 25 24 23 23 23 23 23 23 22 22 24 24 24 24 24 25 26 26 25 24 22 21 22 24 26 26 26 27 27 28 28 29 30 32
23 24 24 23 22 22 23 25 26 26 26 25 25 26 26 28 31 34 37 38 39 38 37 36 34 32 32 33 31 32 34 35 36 36 36 35 34 33 34 34 35 37 37 37 35 35 35 33 30 27 26 25 23 23 23 23 24 23 22 22 24 25 26 25 26 26 28 28 27 26 24 23 22 24 26 27 28 28 29 30 30 31 32 33 34
27 26 24 22 20 20 23 24 21 20 20 21 24 26 26 26 28 30 32 34 34 35 34 33 30 28 29 32 30 31 35 36 37 36 35 35 35 35 35 36 37 38 37 36 34 34 33 32 29 26 25 23 22 23 23 23 23 22 22 24 26 27 27 27 28 28 29 29 28 26 25 25 25 26 29 30 31 31 32 33 34 34 35 36 36
32 33 32 30 27 25 25 24 19 17 18 21 24 25 26 25 24 26 29 31 32 32 30 29 27 26 28 30 29 31 35 36 35 35 35 36 36 36 37 38 39 39 37 34 32 32 32 31 28 25 24 23 22 22 22 22 21 21 23 25 27 27 28 28 29 30 30 29 29 28 27 27 27 29 32 34 35 35 36 36 36 37 38 39 39
38 40 40 38 36 32 30 28 23 21 22 23 23 24 27 25 22 22 24 28 30 30 28 26 26 26 27 29 30 32 34 35 35 36 36 36 37 38 39 40 40 39 35 32 31 32 32 30 26 24 24 23 22 22 21 21 21 22 25 27 28 29 29 29 30 30 31 31 30 29 29 30 30 32 35 38 38 38 38 38 38 39 40 41 42
38 42 44 43 43 42 39 36 31 29 28 27 26 27 29 27 22 20 21 24 26 27 26 25 26 26 27 29 32 33 35 36 37 38 38 39 40 41 42 41 39 36 32 31 31 31 31 29 25 24 24 23 22 22 22 22 22 24 27 29 29 29 29 30 30 31 32 32 31 31 31 32 32 35 38 40 41 41 40 40 40 41 42 43 44
35 39 43 45 46 47 47 43 38 35 33 31 32 31 30 28 24 20 19 21 24 25 26 27 28 29 30 32 34 35 36 38 39 40 41 41 40 40 40 39 36 33 31 31 31 31 30 28 24 23 23 23 22 22 23 24 25 27 29 30 30 30 30 31 32 32 33 33 33 33 33 34 35 37 41 43 43 43 41 41 42 42 43 44 45
35 35 38 42 43 44 45 43 41 40 39 37 36 34 31 29 26 22 20 20 22 25 27 29 31 33 34 34 36 37 37 38 40 40 40 39 39 39 38 36 33 32 31 31 31 30 29 26 24 24 24 24 25 25 26 27 28 29 30 30 31 31 32 32 33 34 34 35 35 35 35 35 37 40 43 45 44 44 43 42 42 44 45 46 47
36 35 34 35 37 38 39 40 40 42 42 39 36 33 30 28 25 22 20 20 21 23 26 28 30 32 34 34 35 36 36 38 38 38 38 37 37 36 34 31 30 30 30 31 31 30 28 25 24 25 25 26 26 27 29 29 30 31 32 32 32 32 31 32 33 35 36 37 37 37 37 37 39 42 45 46 46 45 44 43 43 45 47 48 49
37 38 37 36 36 36 38 39 40 40 39 39 37 33 29 26 23 22 21 20 21 21 23 24 26 28 28 29 30 30 32 33 33 31 31 31 30 29 28 27 27 27 28 29 29 28 27 25 25 25 25 25 26 27 28 29 30 31 32 32 31 30 31 32 34 36 37 38 38 38 39 40 42 45 47 48 47 47 45 44 45 47 49 50 51
37 39 39 38 39 39 40 41 41 40 37 36 36 33 28 23 22 22 21 21 21 21 21 21 22 23 23 24 24 24 25 27 27 27 27 26 25 25 24 23 22 23 23 25 26 26 26 26 26 26 27 27 28 28 29 29 30 30 30 29 29 30 31 33 35 37 38 39 39 39 40 42 44 47 49 49 49 47 46 46 47 49 51 52 53
38 39 39 37 38 38 39 38 37 36 34 32 31 29 25 21 20 21 22 23 22 22 21 21 21 22 21 21 20 19 20 21 22 24 24 23 21 20 19 18 17 16 17 18 21 23 23 24 25 26 26 28 28 28 28 29 29 28 28 28 29 31 32 33 35 38 39 39 39 40 41 44 46 49 50 50 49 48 47 48 50 52 53 54 55
39 41 40 37 35 34 34 33 31 31 31 28 29 30 25 18 18 21 23 23 23 22 21 21 21 20 18 18 17 17 18 18 17 17 18 18 17 15 15 15 14 14 14 14 16 18 19 20 21 22 23 24 25 26 27 28 28 28 29 31 32 34 35 37 39 40 41 41 41 42 44 46 47 49 50 51 50 50 49 51 53 55 56 56 57
40 41 40 37 33 30 30 30 30 31 31 30 31 32 27 20 20 23 23 22 22 21 20 19 18 17 17 17 17 18 18 18 17 15 15 15 14 13 12 13 14 15 14 14 14 15 17 18 19 20 21 22 24 25 27 28 30 31 33 35 36 37 40 43 44 44 44 43 43 44 46 46 47 49 51 52 53 52 52 53 56 57 58 59 61
40 39 39 36 33 30 30 31 32 33 33 32 33 36 35 31 28 26 22 20 19 18 18 17 17 17 18 19 19 20 21 21 21 19 16 14 13 12 13 14 15 16 15 15 15 16 17 19 20 21 22 24 25 26 28 31 33 34 36 38 40 42 45 47 48 46 44 44 45 46 48 47 49 52 53 54 55 55 55 56 58 59 61 62 63
42 40 39 38 35 34 35 35 36 36 33 32 34 37 39 38 35 29 23 20 19 18 18 18 19 20 21 21 21 22 23 23 23 22 20 17 16 15 15 17 19 19 19 17 18 18 18 20 22 23 24 26 28 30 31 33 35 37 39 41 43 44 46 47 48 46 44 44 46 48 50 50 51 54 55 56 57 57 58 60 61 62 64 65 66
44 41 40 40 39 39 38 38 39 40 38 36 37 37 37 38 37 33 27 24 21 21 21 22 23 23 24 24 24 23 24 25 25 24 23 21 19 17 18 19 20 22 22 21 20 21 21 22 23 24 25 26 28 31 33 34 36 37 39 41 42 43 44 45 46 45 44 44 46 49 51 52 53 55 57 58 60 60 61 63 64 65 66 67 69
45 43 41 41 40 40 39 39 41 42 42 41 41 38 36 38 38 37 34 30 27 26 25 25 26 27 27 27 27 26 26 27 26 26 25 24 23 21 21 21 22 23 25 25 25 26 26 27 27 28 29 29 31 32 34 34 36 37 38 40 41 42 43 44 46 46 45 45 46 49 52 54 54 55 58 60 62 62 64 66 67 68 69 71 72
45 44 42 41 40 40 40 41 42 43 43 43 43 40 37 36 38 38 37 35 34 32 30 29 30 30 30 31 30 30 30 29 28 27 26 26 26 26 26 26 26 27 28 29 30 30 31 31 32 33 34 34 35 36 37 37 38 39 40 42 43 44 45 46 48 49 49 49 50 51 54 57 57 58 60 63 64 65 66 68 69 70 72 73 74
45 45 44 42 41 40 40 40 41 42 43 43 42 40 38 35 36 37 36 35 35 35 34 33 33 32 32 33 33 33 32 31 30 29 28 29 29 30 32 32 32 33 33 34 35 35 36 36 36 37 38 39 40 40 41 41 42 43 44 46 47 48 49 51 52 53 54 54 54 55 57 60 61 61 63 65 66 67 68 70 71 72 73 74 76
48 48 47 45 43 42 41 40 39 39 40 41 40 40 40 37 36 37 37 36 36 37 36 36 35 35 35 35 35 35 35 34 33 32 32 32 33 35 37 39 41 40 39 39 39 40 41 41 41 42 43 44 45 45 46 46 47 48 49 50 51 52 53 55 56 56 57 57 58 58 60 62 64 64 66 68 69 70 71 73 74 75 76 77 79
50 51 51 49 48 46 44 42 41 40 40 41 40 39 40 39 39 39 39 38 38 38 38 37 38 38 39 39 39 39 39 38 38 37 36 36 37 39 41 44 46 45 44 44 45 45 45 45 46 47 48 49 50 51 51 52 52 53 54 55 56 56 57 58 59 59 60 60 61 62 62 64 67 68 69 71 72 72 74 76 77 78 79 81 82
52 53 53 52 51 49 48 47 46 45 44 44 43 42 42 42 43 43 43 43 42 41 41 41 41 41 42 42 42 42 42 42 42 41 41 41 42 44 45 46 48 48 48 49 49 48 48 48 50 51 52 53 54 55 56 57 57 58 59 59 60 60 60 61 62 63 63 63 64 65 66 67 69 70 71 73 74 75 76 78 79 81 82 84 85
56 56 55 55 54 52 51 50 49 49 49 48 47 46 46 46 47 47 46 45 45 45 45 46 46 46 46 45 45 45 44 45 45 45 46 47 47 47 48 48 49 50 51 52 52 51 51 52 53 54 55 57 57 59 61 61 62 63 64 64 64 64 64 64 65 65 66 67 67 68 69 70 71 73 73 74 75 76 77 79 81 82 84 86 87
61 59 57 56 56 54 53 51 50 49 50 50 50 49 49 50 50 50 48 46 46 47 48 49 49 49 49 48 47 48 48 48 49 50 51 51 50 50 51 52 52 53 53 54 54 54 55 56 57 58 59 60 61 62 64 64 65 67 68 68 68 68 67 67 67 68 69 69 69 70 71 72 74 76 76 76 75 76 78 81 83 85 87 88 89
Wind_Direction
297 300 299 299 301 304 310 315 318 318 316 314 309 303 296 292 292 293 296 299 302 303 306 305 301 300 300 302 305 306 305 304 304 305 308 314 317 318 320 320 322 325 328 331 331 329 331 338 347 354 357 356 354 350 346 344 339 333 325 320 321 322 322 322 323 324 326 326 326 326 327 327 326 323 321 319 317 316 314 311 307 305 306 308 312
295 297 297 298 300 304 308 313 317 317 315 311 306 300 294 290 290 291 294 297 299 301 304 302 298 297 298 301 304 303 303 304 304 304 307 312 313 314 317 318 321 323 325 327 327 326 327 332 340 348 353 352 350 347 341 338 335 330 323 316 314 315 316 317 319 321 321 321 322 323 323 323 322 320 318 317 315 313 309 306 304 303 303 305 310
292 293 295 298 301 304 308 311 315 316 315 311 305 298 290 287 288 290 292 294 297 299 300 299 295 295 298 302 302 301 301 302 302 303 306 308 309 312 316 319 321 321 322 323 323 323 323 328 334 341 347 348 345 343 338 332 328 324 318 311 307 308 312 315 317 318 318 319 321 321 321 319 318 317 316 315 314 312 307 301 299 298 300 302 306
289 290 293 297 301 304 308 311 314 316 316 313 306 296 288 286 288 289 291 293 295 296 296 295 295 296 299 301 299 298 299 299 300 301 303 305 307 312 317 320 321 320 320 319 318 319 320 324 329 334 340 344 342 338 335 328 322 315 309 304 301 303 308 313 316 318 320 321 322 321 318 316 314 313 313 313 313 312 309 302 297 295 296 298 302
286 289 294 298 302 304 307 310 314 316 315 314 309 299 290 286 287 288 290 292 292 292 292 294 298 298 299 299 296 296 297 297 298 299 300 302 306 313 317 320 320 319 319 317 315 315 317 320 325 329 334 339 339 336 331 326 318 310 303 298 297 299 304 308 312 316 320 321 320 318 317 316 313 311 310 311 312 313 313 309 303 299 297 298 301
286 291 296 300 301 303 306 310 312 314 314 316 315 306 295 288 287 288 288 288 288 289 292 296 299 298 297 297 294 292 293 294 295 297 298 301 308 314 316 318 319 318 317 316 313 312 314 318 322 325 328 334 336 333 328 323 316 308 301 297 297 298 299 301 305 311 315 316 316 318 322 322 320 318 316 317 318 318 315 311 307 304 302 300 301
286 293 298 299 299 300 305 310 311 313 315 317 318 311 299 290 286 285 285 286 287 289 293 297 297 295 294 293 291 290 290 291 292 293 296 302 310 313 315 318 319 318 315 313 311 310 312 316 319 321 324 329 331 330 326 320 313 307 301 298 296 297 297 297 299 305 310 312 314 320 327 329 328 326 326 327 326 322 317 312 308 305 303 301 300
285 294 298 297 298 299 305 311 311 313 314 314 314 310 299 291 285 283 285 287 289 291 293 295 294 292 292 290 289 289 288 287 286 288 295 304 309 311 314 317 317 315 314 311 309 308 311 313 315 317 320 324 327 326 323 318 311 304 300 297 296 296 297 296 297 300 305 309 312 318 326 330 330 328 327 327 324 320 315 310 306 302 299 296 294
283 293 295 295 298 300 304 307 307 306 305 304 306 305 297 289 281 278 283 288 290 292 292 292 292 291 289 288 288 287 286 284 284 287 294 303 309 312 313 314 314 313 312 310 308 308 309 310 311 314 317 320 323 323 320 315 308 301 298 298 298 297 298 297 296 296 300 306 309 315 323 327 327 324 322 321 319 316 312 307 302 297 294 291 289
282 288 287 286 288 291 295 299 300 297 296 296 293 292 288 282 277 277 283 288 291 291 290 290 289 287 285 285 287 287 286 284 286 291 296 301 308 311 311 310 310 311 310 309 308 307 306 306 308 312 314 318 320 320 318 313 305 298 297 299 302 302 302 299 297 296 298 302 306 313 320 323 322 319 317 316 315 314 313 310 305 299 295 292 291
288 285 282 280 282 287 287 290 294 292 292 290 282 283 282 277 278 283 286 289 289 287 287 287 284 282 281 283 286 286 284 284 289 295 298 301 307 310 309 307 308 309 309 308 307 306 305 304 307 310 312 315 317 317 316 312 302 295 295 301 306 307 305 301 299 296 295 298 304 312 317 319 319 316 314 313 315 317 318 316 311 305 301 298 297
289 284 282 285 289 291 283 279 285 289 290 285 283 291 288 282 283 288 291 289 285 283 284 284 281 280 281 282 284 283 282 285 291 295 298 303 307 308 306 305 306 308 309 308 306 305 304 303 306 308 309 312 314 314 314 308 298 291 292 299 305 306 305 301 298 293 290 295 302 309 314 315 316 315 313 313 316 320 321 319 315 309 305 302 301
282 282 286 289 289 286 275 266 270 278 281 278 284 295 291 288 291 292 294 288 282 282 282 282 282 281 281 282 281 278 277 283 289 293 297 301 304 305 304 303 306 308 309 307 305 303 303 303 305 306 307 309 311 312 311 304 294 288 289 295 301 303 301 299 294 288 288 294 301 307 311 313 315 314 312 313 317 321 321 318 314 309 306 304 303
278 281 284 284 280 274 262 254 258 264 265 269 281 290 289 289 292 291 290 285 284 285 282 281 281 280 281 280 273 267 271 280 287 292 294 297 301 302 302 304 307 307 307 305 303 301 301 302 303 304 304 306 308 309 307 301 292 287 288 293 297 298 298 296 290 285 288 294 300 306 310 313 313 312 311 314 319 321 320 316 311 307 305 304 304
276 278 278 275 270 268 257 247 256 261 257 266 279 284 289 291 290 289 287 283 283 284 281 280 280 280 281 274 262 260 269 280 287 290 292 295 299 300 302 304 305 304 304 302 300 298 300 300 301 302 303 304 305 306 305 298 290 288 290 293 294 294 294 291 285 284 289 295 301 306 310 312 311 309 311 316 320 319 316 312 308 306 306 307 307
271 274 275 274 265 265 248 230 250 265 260 268 276 278 287 291 287 288 288 283 281 281 280 280 281 283 280 270 263 265 272 279 284 288 290 293 296 298 300 301 300 301 301 300 298 297 299 299 299 301 302 302 304 305 302 295 289 289 292 292 292 290 288 284 282 285 290 296 301 306 309 310 308 308 313 318 317 314 311 309 308 309 311 312 314
268 269 272 274 264 261 244 227 246 265 263 265 272 277 286 288 285 285 284 281 279 280 279 277 279 279 276 270 269 271 275 279 282 285 287 290 292 294 295 295 296 299 301 299 297 297 298 297 297 299 301 301 302 302 298 291 289 290 290 289 286 283 281 280 283 287 292 296 301 305 307 307 306 311 316 317 313 309 309 310 312 315 316 318 320
266 266 264 268 268 266 261 249 254 261 260 263 271 278 283 284 283 283 282 281 279 277 275 272 271 270 269 269 270 273 276 279 281 282 285 287 289 289 290 292 295 297 299 298 295 295 296 296 296 298 299 300 300 299 295 290 289 287 285 283 281 278 278 280 284 288 292 296 301 304 305 305 308 314 316 313 308 307 310 315 318 319 320 321 322
263 262 259 264 272 274 274 269 263 261 260 263 269 275 279 280 280 280 279 279 276 273 270 268 267 265 263 264 267 271 274 276 278 280 283 285 287 287 287 290 293 294 295 294 293 293 294 294 296 298 298 298 299 297 292 289 287 284 281 280 277 276 277 279 283 287 293 298 301 303 304 306 311 314 312 307 305 309 315 320 321 321 321 322 322
255 254 255 263 272 278 277 271 265 262 262 263 267 273 275 276 277 277 275 270 268 269 268 267 266 263 262 263 266 270 272 273 274 277 280 281 282 283 283 287 290 291 291 292 292 293 293 294 296 296 296 297 297 294 290 286 283 280 279 279 276 275 277 280 284 290 295 298 301 303 305 307 311 311 308 306 308 314 318 319 318 319 323 327 328
246 244 250 261 272 281 278 268 263 263 264 265 268 271 272 274 276 275 274 269 265 267 267 264 263 261 261 263 265 267 269 270 271 275 279 280 282 282 284 288 289 289 290 293 293 292 293 294 295 295 295 296 295 292 287 282 279 278 277 276 275 275 277 281 287 292 295 298 300 302 304 306 309 309 307 308 312 314 314 312 314 319 328 336 340
241 242 246 257 272 280 272 265 265 266 266 267 267 268 269 272 273 271 270 267 263 262 261 258 258 258 260 263 265 266 267 268 272 276 279 281 283 283 285 287 287 287 290 292 292 291 292 293 294 294 294 294 292 288 283 279 276 274 272 271 271 274 278 284 288 292 295 297 299 299 302 306 308 307 308 311 311 307 305 307 313 322 333 341 346
241 245 247 257 271 271 260 263 270 270 269 266 264 264 266 269 270 267 265 262 258 256 254 254 256 258 260 262 263 264 266 269 274 277 279 280 282 283 284 284 285 287 289 290 290 290 290 292 293 294 292 290 287 284 278 274 272 269 268 268 269 273 279 285 288 292 294 295 294 297 303 306 306 306 309 307 302 299 302 307 314 324 334 341 346
243 246 250 261 267 260 257 266 272 275 276 271 266 263 263 266 267 265 263 260 257 255 254 255 257 260 261 262 264 266 269 272 274 275 277 279 281 282 282 282 284 287 290 290 289 288 289 292 293 291 287 285 283 279 273 269 267 266 266 266 268 274 280 285 288 291 291 290 292 299 304 305 305 305 303 297 295 298 303 309 315 324 333 340 345
247 247 255 262 260 255 262 271 275 280 283 281 275 268 265 265 266 266 264 261 259 258 257 258 259 260 259 260 263 265 268 269 270 274 277 279 280 280 280 282 285 290 291 290 289 288 289 291 290 286 284 283 280 274 268 264 264 263 262 264 269 276 281 285 286 286 286 288 294 300 303 303 302 298 292 290 294 300 306 311 317 325 334 340 345
255 248 251 253 251 256 265 272 278 284 286 287 284 276 271 268 267 266 264 262 259 257 257 258 258 258 256 256 257 259 263 265 268 272 275 276 277 277 279 282 287 290 291 290 288 288 289 289 286 284 283 282 277 271 265 262 262 260 260 264 271 278 280 281 281 281 284 290 295 298 301 300 295 289 287 290 296 301 308 314 320 327 334 339 344
267 252 246 247 252 258 264 273 282 286 288 289 288 283 278 273 270 267 264 261 258 255 255 255 255 255 256 257 256 258 262 265 268 271 272 273 274 276 280 284 287 289 290 289 288 287 286 285 284 283 283 280 274 268 264 263 260 259 261 267 272 277 277 277 277 279 285 290 293 296 298 295 290 286 288 292 296 303 309 315 321 327 333 338 342
271 259 250 254 261 264 269 280 287 287 288 290 291 289 283 278 273 269 265 261 256 254 253 253 254 253 254 256 255 257 262 264 267 269 270 272 274 277 282 284 287 289 290 289 287 285 283 283 284 283 280 276 270 266 264 261 258 259 263 268 272 274 275 275 277 281 287 290 291 294 295 292 288 287 290 294 299 305 312 317 323 328 332 336 340
264 255 252 263 272 274 276 281 287 287 288 294 298 297 292 285 277 269 265 260 255 252 250 251 251 247 248 253 254 257 262 265 266 267 268 271 274 278 282 285 287 289 289 287 285 282 280 281 283 281 275 271 267 264 262 259 258 261 265 268 270 272 273 275 279 283 287 289 290 293 293 291 287 288 294 299 304 309 314 319 323 327 330 334 337
256 253 254 262 269 275 274 274 280 284 289 299 305 304 300 292 281 272 265 259 253 249 247 248 247 243 246 252 256 259 262 264 265 266 268 271 275 279 283 285 287 287 286 285 282 279 278 281 282 277 271 268 265 262 262 261 261 263 266 267 269 270 273 276 280 285 287 289 291 292 292 290 287 289 296 302 306 311 315 318 321 324 328 331 333
252 252 254 257 261 267 269 270 275 282 289 296 297 302 305 297 286 276 268 261 254 248 245 246 246 245 247 252 257 260 262 264 266 268 271 275 279 283 284 285 286 285 283 282 280 277 278 281 281 274 269 267 265 263 263 263 264 264 265 266 268 271 274 277 281 285 287 289 290 292 291 290 288 290 296 302 305 309 313 315 319 322 325 328 330
247 249 252 254 257 261 264 267 271 279 288 290 288 296 304 299 289 279 270 264 257 249 247 248 249 250 251 254 258 260 262 265 268 272 274 278 282 284 283 284 283 281 281 280 278 278 279 281 278 272 268 268 268 267 265 264 265 266 266 267 268 271 274 278 281 284 285 287 289 291 290 288 287 290 295 299 302 306 310 313 316 320 323 325 327
244 246 249 252 256 259 262 264 267 275 284 287 287 293 299 298 291 280 270 265 259 251 247 248 251 253 254 255 257 260 264 267 270 273 275 279 281 281 281 281 280 279 280 279 279 279 280 281 278 273 272 272 271 268 266 266 266 267 268 269 270 272 275 278 280 281 283 285 288 289 288 286 286 290 295 298 300 303 307 311 314 318 321 323 325
242 244 247 251 254 258 260 262 265 273 282 286 287 291 294 294 289 281 272 266 261 255 250 248 249 250 252 254 257 261 266 269 271 274 276 277 278 277 278 279 277 277 279 279 278 279 279 278 276 273 271 271 269 268 267 267 267 267 268 269 270 273 276 278 280 281 282 284 287 288 287 285 285 290 296 298 299 302 305 309 314 317 319 321 323
243 245 248 250 253 255 259 262 266 271 278 282 286 290 293 291 286 280 275 269 264 259 256 254 253 254 255 257 260 264 268 270 272 274 276 276 275 275 276 276 276 277 277 276 277 277 276 274 271 269 268 268 268 268 268 268 267 267 267 269 271 274 278 280 281 282 283 285 288 288 286 284 285 290 296 298 299 301 304 309 314 316 318 320 321
248 250 251 253 256 258 261 265 269 271 274 278 283 288 291 290 283 278 276 273 269 264 261 260 259 259 260 262 264 265 266 267 269 271 274 275 274 274 275 275 276 277 276 275 274 274 273 271 269 266 265 266 266 268 269 269 268 267 267 270 274 277 281 282 284 285 286 288 289 288 286 285 286 290 295 296 297 300 305 311 314 315 316 318 319
252 254 256 257 259 262 265 267 268 270 273 279 281 282 289 294 284 278 277 274 271 268 264 263 262 262 264 265 266 264 262 264 266 269 272 272 272 275 277 278 279 279 278 276 273 272 270 269 267 264 263 265 266 268 269 268 267 267 270 273 277 281 283 285 288 289 290 289 288 288 287 286 287 290 293 295 297 302 307 312 313 314 315 316 317
255 257 259 260 262 265 266 265 266 266 269 275 275 275 287 298 291 282 279 275 272 269 265 263 263 264 264 262 260 259 261 266 271 272 270 269 271 275 279 281 281 279 277 275 272 271 271 270 270 269 267 266 267 268 268 268 269 270 273 276 279 281 284 288 292 292 291 288 287 287 287 287 288 290 292 295 299 304 309 311 311 311 313 314 316
258 260 262 263 263 263 261 260 261 262 262 266 268 271 281 300 303 292 282 277 274 269 264 262 260 258 255 252 254 259 267 276 284 282 275 271 270 273 279 282 282 281 279 277 275 275 277 278 278 276 274 270 270 270 270 270 271 273 275 277 278 280 285 291 294 294 291 288 286 286 286 288 289 290 294 297 301 305 308 309 308 309 311 313 314
259 261 263 262 260 257 256 256 257 258 258 260 264 268 272 285 303 301 289 279 274 267 260 255 250 246 246 250 258 267 275 283 291 294 292 286 279 278 283 286 288 290 288 283 281 281 282 282 282 281 280 277 275 273 272 273 274 276 277 277 278 282 287 291 293 294 293 289 287 287 288 290 291 293 296 299 301 304 307 307 307 308 310 311 312
257 259 260 259 254 247 247 251 253 256 258 259 263 267 267 270 283 291 288 279 270 262 255 249 244 245 250 256 265 274 282 288 292 297 302 305 302 296 290 288 292 296 295 288 285 284 284 284 283 281 280 278 277 274 274 275 276 277 278 279 281 284 287 290 291 292 292 290 289 290 290 292 293 295 297 299 301 304 306 306 306 307 309 310 311
255 256 257 256 250 242 241 246 251 254 256 258 263 267 269 272 276 278 276 274 268 259 254 251 250 252 256 262 269 278 285 291 293 295 298 302 306 303 294 289 292 295 295 288 283 282 284 286 285 283 282 280 279 277 277 277 277 278 279 281 283 285 287 289 289 290 291 291 291 292 292 293 294 296 298 300 301 304 305 305 306 307 308 310 311
251 252 251 252 252 249 247 247 249 252 255 258 262 266 270 275 277 275 270 267 266 264 262 259 259 260 262 266 272 279 285 289 291 293 294 296 298 299 296 292 290 290 292 290 284 281 283 285 285 285 286 285 283 282 282 281 281 281 281 283 285 286 288 288 290 292 294 294 294 294 294 295 297 299 300 301 301 304 305 304 305 306 307 308 308
249 249 248 250 251 251 250 249 249 252 256 258 262 266 269 271 273 274 272 268 266 268 269 267 265 264 266 268 272 277 282 286 288 290 291 292 292 293 292 291 288 288 289 290 287 284 284 284 284 285 286 288 287 287 287 286 286 286 286 287 289 290 290 291 292 294 296 297 297 297 297 298 301 303 302 301 303 304 304 303 304 305 305 305 306
247 246 245 246 247 248 249 250 252 254 257 259 262 265 267 267 268 270 270 269 270 271 271 271 269 266 267 270 272 275 279 283 285 286 287 288 288 288 287 286 286 285 284 285 286 286 286 287 287 287 288 290 291 291 292 291 291 290 290 290 291 291 292 293 294 295 297 299 300 302 301 301 304 305 303 302 304 304 303 303 303 303 304 305 307
242 242 242 243 245 247 249 251 253 256 258 260 261 262 264 264 263 264 266 267 269 270 272 274 272 267 267 270 271 273 276 278 280 282 283 283 284 285 285 285 284 283 282 283 283 284 285 288 290 291 291 292 294 295 295 295 294 293 293 292 292 293 293 294 296 298 299 301 302 303 302 302 304 306 304 303 304 305 304 303 303 305 307 309 311
238 238 240 242 244 245 248 250 253 255 257 259 261 262 262 261 260 261 263 264 267 269 271 273 272 270 271 273 273 273 274 275 275 276 278 280 282 283 285 286 288 289 287 285 283 283 285 288 290 291 292 293 294 295 296 296 296 296 295 295 295 296 296 297 298 299 300 301 302 302 301 302 304 305 304 304 305 305 305 305 306 308 310 311 311
236 237 238 241 244 245 246 248 251 253 257 260 261 261 261 260 258 260 262 263 265 267 268 269 270 270 272 274 274 273 272 273 273 273 273 276 280 282 283 286 289 291 290 288 287 287 288 288 288 289 291 293 294 294 294 295 296 297 297 298 298 299 299 299 298 299 300 301 301 302 303 303 305 306 305 305 306 306 306 307 307 308 309 309 309
235 236 237 239 242 244 246 248 250 253 257 261 264 264 263 261 259 260 263 265 265 266 266 268 270 270 270 272 273 271 270 270 270 270 271 275 278 280 281 282 285 287 288 289 290 289 287 286 286 288 290 292 292 293 293 294 295 297 299 300 300 301 300 300 299 300 301 302 302 303 304 305 305 305 305 305 305 306 305 305 305 306 306 307 308
236 237 238 240 242 243 245 249 251 253 256 259 263 265 266 266 265 265 266 266 266 266 267 268 270 271 271 270 270 268 268 267 268 269 271 274 276 277 277 278 280 283 285 286 288 288 286 284 285 286 287 289 290 290 291 293 294 296 299 301 301 301 301 300 300 300 301 302 302 302 303 303 303 303 303 303 304 305 304 304 304 305 306 307 309
238 239 239 241 243 245 247 251 253 255 257 259 261 263 265 266 268 269 268 267 267 268 268 269 270 270 270 269 266 265 265 265 267 269 271 273 275 275 276 278 279 281 282 283 285 286 286 285 285 285 285 286 287 288 290 292 293 296 299 300 300 300 300 300 299 299 300 301 301 301 301 301 301 302 302 303 304 304 304 305 305 306 307 309 310